Location: Baix
(44.7118°N, 4.7648°E)
Time: 14:41:53
(UTC+00:00)

Explorer 11/Cluster Stage 4 - Pass Details

Date: 03 December 2020
Orbit: 467 x 1258 km, 28.8° (Epoch: 14 January)

Event Time Altitude Azimuth Distance (km) Brightness Sun altitude
Rises 18:37:36 0° 218° (SW) 4,185 10.9 -27.0°
Reaches altitude 10° 18:41:53 10° 199° (SSW) 3,174 9.9 -27.8°
Maximum altitude 18:46:23 16° 165° (SSE) 2,641 9.1 -28.6°
Enters shadow 18:46:53 16° 160° (SSE) 2,635 9.1 -28.7°
Drops below altitude 10° 18:50:38 10° 130° (SE) 2,959 - -29.3°
Sets 18:54:24 0° 110° (ESE) 3,772 - -30.0°
